Lexington Weather

Lexington, Massachusetts, USA

33°F
12/8/2019 3:51pm 
  • Lexington Conditions: Mostly cloudy
  • Temperature: 32.7°F / 0.4°CColder 1.3°F than last hour.
  • Dew Point: 16.5°FIncreased 1.1°Fsince last hour.
  • Relative Humidity: 51%Increased 5.0% since last hour.
  • Wind: Wind from SSW SSW 3 mph, 10-min avg: 2 mph, gust: 6 mph
  • Barometer: 30.40 in Steady
  • Visibility: 10 miles
  • Snow Today: 0.0 in
  •   

Regional Weather Roundup
for Boston / Norton, MA

        
000
ASUS41 KBOX 061710
RWRBOX

REGIONAL WEATHER ROUNDUP
NATIONAL WEATHER SERVICE BOSTON/NORTON MA
1200 PM EST FRI DEC 06 2019

NOTE:  "FAIR" INDICATES FEW OR NO CLOUDS BELOW 12,000 FEET WITH NO 
SIGNIFICANT WEATHER AND/OR OBSTRUCTIONS TO VISIBILITY.

MAZALL-061800-
EASTERN MASSACHUSETTS
  
CITY           SKY/WX    TMP DP  RH WIND       PRES   REMARKS
BOSTON         CLOUDY    36  21  54 SW10      30.03F WCI  28          
BEVERLY        CLOUDY    32  20  61 SW10      30.03F WCI  24          
LAWRENCE       CLOUDY    30  19  63 SW6       30.04F WCI  24          
BEDFORD        CLOUDY    33  19  56 SW12      30.02F WCI  24          
BLUE HILL        N/A     30  20  66 SW10      30.00F WCI  21          
NORWOOD        CLOUDY    36  20  52 SW8       30.04F WCI  30          
MARSHFIELD     CLOUDY    36  21  55 SW8G15    30.05F WCI  29          
PLYMOUTH       CLOUDY    34  22  61 SW8       30.05F WCI  27          
TAUNTON        CLOUDY    36  20  52 SW7       30.05F WCI  30          
NEW BEDFORD    CLOUDY    36  21  54 SW7       30.04F WCI  30          
$$

MAZALL-061800-
CAPE COD AND THE ISLANDS
  
CITY           SKY/WX    TMP DP  RH WIND       PRES   REMARKS
FALMOUTH       CLOUDY    36  21  55 W14       30.07F WCI  27          
HYANNIS        CLOUDY    38  21  50 SW12      30.05F WCI  30          
CHATHAM        PTSUNNY   38  24  57 W9        30.07F WCI  31          
PROVINCETOWN   CLOUDY    36  23  59 SW16      30.05F WCI  26          
NANTUCKET      PTSUNNY   42  29  59 SW14      30.07F                  
MARTHAS VNYRD  FAIR      40  24  53 SW10G20   30.07F                  
$$
 
MAZALL-061800-
CENTRAL AND WESTERN MASSACHUSETTS
  
CITY           SKY/WX    TMP DP  RH WIND       PRES   REMARKS
WORCESTER      CLOUDY    30  19  63 SW14      29.98F WCI  19          
FITCHBURG      CLOUDY    33  19  56 SW9       30.02F WCI  25          
ORANGE         LGT SNOW  31  22  69 SW9       30.00F WCI  23          
SPRINGFIELD    CLOUDY    32  21  63 S7        30.00F WCI  26          
WESTFIELD      CLOUDY    34  21  59 S7        29.99F WCI  28          
NORTH ADAMS    LGT SNOW  28  24  85 E6        29.95F VSB 3/4 WCI  22  
PITTSFIELD     LGT SNOW  28  24  85 SE3       29.91F VSB 1            
$$
 
RIZALL-061800-
RHODE ISLAND
  
CITY           SKY/WX    TMP DP  RH WIND       PRES   REMARKS
PROVIDENCE     CLOUDY    36  22  56 SW12      30.05F WCI  28          
NEWPORT        CLOUDY    38  23  55 VRB5      30.05F                  
BLOCK ISLAND   CLOUDY    39  26  59 W13       30.07F WCI  31          
SMITHFIELD     CLOUDY    35  21  56 SW8       30.03  WCI  29          
WESTERLY       CLOUDY    41  24  51 SW10      30.06F                  
$$
 
CTZALL-061800-
CONNECTICUT
  
CITY           SKY/WX    TMP DP  RH WIND       PRES   REMARKS
BRADLEY INTL   PTSUNNY   38  23  55 S12       30.01F WCI  30          
HARTFORD       CLOUDY    37  24  59 S5        30.03F                  
BRIDGEPORT     CLOUDY    44  28  53 SW16      30.04F                  
DANBURY        CLOUDY    39  24  55 S10       30.01F                  
GROTON         PTSUNNY   40  27  59 SW12      30.06F                  
NEW HAVEN      PTSUNNY   45  30  55 S12       30.04F                  
CHESTER        PTSUNNY   39  25  56 SW9G17    30.03F                  
MERIDEN        CLOUDY    38  25  59 S10       30.02F WCI  31          
WILLIMANTIC    CLOUDY    36  23  59 SW7       30.05F WCI  30          
OXFORD         CLOUDY    36  25  64 SW6       30.01F WCI  31          
$$

MEZ002-015-021-024-NHZ003-005-008-011-012-014-VTZ005-008-061800-
NORTHERN NEW ENGLAND
  
CITY           SKY/WX    TMP DP  RH WIND       PRES   REMARKS
PORTLAND ME    CLOUDY    32  16  51 W5        30.00F WCI  27          
BANGOR ME      CLOUDY    28  15  58 W8        29.95F WCI  20          
CONCORD NH     FLURRIES  29  18  63 SW6       30.00F WCI  23          
MANCHESTER NH  FLURRIES  29  17  61 CALM      30.00F                  
NASHUA NH      CLOUDY    32  20  61 S3        30.02F                  
PORTSMOUTH NH  CLOUDY    29  15  57 W7        30.00F WCI  21          
JAFFREY NH     LGT SNOW  28  21  75 VRB5      29.96F WCI  23          
KEENE NH       LGT SNOW  27  22  81 CALM      29.99F                  
BURLINGTON VT  CLOUDY    29  18  63 S9        29.96F WCI  20          
MT. WASHINGTON SNOW       7   7 100 W37         N/A  VSB 1/16WCI -19  
$$

NYZ052-076-061800-
EASTERN NEW YORK
  
CITY           SKY/WX    TMP DP  RH WIND       PRES   REMARKS
ALBANY         LGT SNOW  31  25  78 SE7       29.95F VSB 3/4 WCI  24  
NEW YORK CITY  PTSUNNY   44  24  45 SW12G23   30.04F                  
$$
 
ANZALL-061800-
MARINE OBSERVATIONS
  
STATION/POSITION TIME  TEMP    WIND        PRES    VSBY  WAVE
                       AIR SEA DIR/SP/G                  HT/PER
                 (UTC) (F)     (DEG/KT/KT) (MB)    (MI)  (FT/S)
BOSTON BUOY      1650   35 48  220/ 14/ 17 1016.8F         2/ 3
BUZZARDS BAY     1600   38     240/ 15/ 17 1019.4F
NANTUCKET SOUND  1640      43                N/A           1/ 3
MASS BAY-STELLWA 1604   35 46  280/ 16/ 21 1015.9F  1 7/8  2/ 3
ISLE OF SHOALS   1600   30     250/ 15/ 18 1016.8F
S OF BLOCK IS    1630      51                N/A           4/ 6
$$

......................KEY.........................
  SKY/WX - SKY CONDITION/PRESENT WEATHER
  TMP    - TEMPERATURE IN FAHRENHEIT
  DWPT   - DEWPOINT IN FAHRENHEIT
  RH     - RELATIVE HUMIDITY IN PERCENT
  WIND   - DIRECTION AND SPEED IN MPH
  PRES   - MEAN SEA LEVEL PRESSURE IN INCHES OF HG
  WCI    - WIND CHILL INDEX
  VSB    - VISIBILITY IN MILES
  HX     - HEAT INDEX
  TC     - TEMPERATURE IN CELSIUS
  VRB    - VARIABLE WIND DIRECTION
  N/A    - NOT AVAILABLE
  
      

Other recent Regional Weather Roundups

Sun Dec 8, 3:10pm

Sun Dec 8, 3:01pm

Sun Dec 8, 2:10pm

Sun Dec 8, 2:01pm

Sun Dec 8, 1:10pm

Sun Dec 8, 1:00pm

Sun Dec 8, 12:10pm

Sun Dec 8, 12:01pm

Sun Dec 8, 11:10am

Sun Dec 8, 11:00am

Sun Dec 8, 10:10am

Sun Dec 8, 10:01am

Sun Dec 8, 9:10am

Sun Dec 8, 9:00am

Sun Dec 8, 8:10am

Sun Dec 8, 8:00am

Sun Dec 8, 7:10am

Sun Dec 8, 7:00am

Sun Dec 8, 6:10am

Sun Dec 8, 6:00am

Sun Dec 8, 5:10am

Sun Dec 8, 5:00am

Sun Dec 8, 4:10am

Sun Dec 8, 4:00am

Sun Dec 8, 3:10am

Sun Dec 8, 3:00am

Sun Dec 8, 2:10am

Sun Dec 8, 2:00am

Sun Dec 8, 1:10am

Sun Dec 8, 1:00am

Sun Dec 8, 12:10am

Sun Dec 8, 12:01am

Sat Dec 7, 11:10pm

Sat Dec 7, 11:00pm

Sat Dec 7, 10:10pm

Sat Dec 7, 10:00pm

Sat Dec 7, 9:10pm

Sat Dec 7, 9:00pm

Sat Dec 7, 8:10pm

Sat Dec 7, 8:00pm

Sat Dec 7, 7:10pm

Sat Dec 7, 7:00pm

Sat Dec 7, 6:10pm

Sat Dec 7, 6:00pm

Sat Dec 7, 5:10pm

Sat Dec 7, 5:00pm

Sat Dec 7, 4:10pm

Sat Dec 7, 4:00pm

Sat Dec 7, 3:10pm

Sat Dec 7, 3:00pm

Sat Dec 7, 2:10pm

Sat Dec 7, 2:01pm

Sat Dec 7, 1:10pm

Sat Dec 7, 1:00pm

Sat Dec 7, 12:10pm

Sat Dec 7, 12:01pm

Sat Dec 7, 11:10am

Sat Dec 7, 11:00am

Sat Dec 7, 10:10am

Sat Dec 7, 10:01am

Sat Dec 7, 9:10am

Sat Dec 7, 9:00am

Sat Dec 7, 8:10am

Sat Dec 7, 8:00am

Sat Dec 7, 7:10am

Sat Dec 7, 7:00am

Sat Dec 7, 6:10am

Sat Dec 7, 6:00am

Sat Dec 7, 5:10am

Sat Dec 7, 5:00am

Sat Dec 7, 4:10am

Sat Dec 7, 4:00am

Sat Dec 7, 3:10am

Sat Dec 7, 3:00am

Sat Dec 7, 2:10am

Sat Dec 7, 2:01am

Sat Dec 7, 1:10am

Sat Dec 7, 1:00am

Sat Dec 7, 12:10am

Sat Dec 7, 12:01am

Fri Dec 6, 11:10pm

Fri Dec 6, 11:00pm

Fri Dec 6, 10:10pm

Fri Dec 6, 10:00pm

Fri Dec 6, 9:10pm

Fri Dec 6, 9:00pm

Fri Dec 6, 8:10pm

Fri Dec 6, 8:00pm

Fri Dec 6, 7:10pm

Fri Dec 6, 7:01pm

Fri Dec 6, 6:10pm

Fri Dec 6, 6:00pm

Fri Dec 6, 5:10pm

Fri Dec 6, 5:00pm

Fri Dec 6, 4:10pm

Fri Dec 6, 4:00pm

Fri Dec 6, 3:10pm

Fri Dec 6, 3:00pm

Fri Dec 6, 2:10pm

Fri Dec 6, 2:00pm

Fri Dec 6, 1:10pm

Fri Dec 6, 1:00pm

Fri Dec 6, 12:00pm

Fri Dec 6, 11:10am

Fri Dec 6, 11:00am

Fri Dec 6, 10:10am

Fri Dec 6, 10:00am

Fri Dec 6, 9:10am

Fri Dec 6, 9:00am

Fri Dec 6, 8:10am

Fri Dec 6, 8:00am

Fri Dec 6, 7:10am

Fri Dec 6, 7:00am

Fri Dec 6, 6:10am

Fri Dec 6, 6:01am

Fri Dec 6, 5:10am

Fri Dec 6, 5:00am

Fri Dec 6, 4:10am

Fri Dec 6, 4:00am

Fri Dec 6, 3:10am

Fri Dec 6, 3:00am

Fri Dec 6, 2:10am

Fri Dec 6, 2:00am

Fri Dec 6, 1:10am

Fri Dec 6, 1:00am

Fri Dec 6, 12:10am

Fri Dec 6, 12:00am

Thu Dec 5, 11:10pm

Thu Dec 5, 11:00pm

Thu Dec 5, 10:10pm

Thu Dec 5, 10:01pm

Thu Dec 5, 9:10pm

Thu Dec 5, 9:01pm

Thu Dec 5, 8:10pm

Thu Dec 5, 8:00pm

Thu Dec 5, 7:10pm

Thu Dec 5, 7:00pm

Thu Dec 5, 6:10pm

Thu Dec 5, 6:00pm

Thu Dec 5, 5:10pm

Thu Dec 5, 5:00pm

Thu Dec 5, 4:10pm

Thu Dec 5, 4:00pm

Meta data:

ID: b4bfe3e8-4d67-420e-9004-f78ec98cb172
Link: https://api.weather.gov/products/b4bfe3e8-4d67-420e-9004-f78ec98cb172